Helicity
323 219 242 231 217 289 423 379 286 209 145 94 149 115 69 160 186 104 99 158 156 182 186 169 124 103 130 142 91 74 77 73 79 81 79 78 76 75 73 69 63 60 59 62
378 205 165 179 166 250 241 227 216 211 121 104 36 172 169 134 112 126 91 91 131 155 192 157 100 99 101 98 85 71 66 74 77 85 92 93 97 97 95 82 72 60 50 42
350 257 199 215 129 66 177 246 239 225 188 139 190 210 227 221 173 170 153 137 144 205 151 107 110 81 81 75 77 87 88 90 87 89 107 114 107 107 96 88 83 66 59 53
295 219 265 158 236 225 181 180 213 236 183 194 237 197 134 106 86 95 121 142 176 130 95 77 77 83 82 89 109 105 94 96 95 99 113 112 113 120 115 114 106 100 91 79
306 303 262 159 92 145 109 168 179 215 153 190 135 114 67 61 127 177 182 172 133 71 69 64 63 77 92 100 100 106 110 114 104 104 115 128 140 132 125 114 107 104 90 74
413 307 323 177 216 199 149 212 155 180 175 125 110 201 134 222 213 187 105 56 48 50 59 72 79 102 113 110 123 119 116 110 114 110 114 133 137 148 150 147 129 126 101 93
233 308 267 142 242 163 245 145 190 134 52 145 144 158 193 150 82 66 38 45 54 69 89 97 107 120 115 124 123 114 130 137 128 118 132 138 162 177 164 150 135 134 106 103
350 341 298 187 194 145 112 122 68 57 50 150 118 127 95 44 24 44 47 58 66 95 103 106 125 133 126 127 143 144 146 145 136 134 133 147 138 145 130 135 132 109 99 89
280 305 217 50 114 107 113 75 44 115 172 156 94 36 5 24 30 42 61 89 103 92 90 119 123 175 146 144 145 141 146 149 144 123 108 111 123 121 125 110 110 104 94 69
204 185 117 61 86 107 68 62 30 108 69 14 4 -13 -2 23 56 84 70 65 85 104 102 103 124 159 185 144 131 159 151 150 135 130 104 109 119 114 120 115 111 96 77 49
152 105 120 162 68 -89 -118 -1 114 39 -62 -49 -7 -26 31 70 81 78 71 51 82 104 104 109 118 121 132 134 148 161 160 147 133 140 116 119 111 127 112 112 109 120 122 52
136 114 25 -33 -67 12 44 63 8 -5 -9 35 66 61 81 65 80 92 69 72 99 99 105 106 121 124 137 151 172 163 150 129 139 127 116 117 128 119 57 36 16 -5 -3 -25
6 43 50 12 66 98 89 24 17 22 26 38 69 108 87 84 85 48 95 87 88 91 115 122 129 142 144 149 168 133 120 112 126 103 109 114 97 79 -12 51 23 2 -4 1
91 102 88 90 62 42 12 -10 1 28 48 65 71 103 70 62 63 81 78 82 97 110 116 127 160 142 129 127 130 120 114 66 94 102 91 77 52 29 20 10 3 16 -6 -11
103 54 45 48 19 8 15 15 28 29 27 48 28 36 57 74 80 87 87 88 115 119 122 151 139 121 114 136 124 113 104 99 91 93 57 19 -1 -9 -9 -5 -2 5 6 27
71 30 12 53 30 24 18 20 38 51 60 44 53 64 81 100 100 102 97 116 121 113 125 133 124 124 139 121 103 88 86 39 -18 -42 -9 -23 -12 -4 4 1 7 15 24 28
71 46 51 43 33 8 36 56 72 77 62 61 64 69 80 89 98 97 89 116 124 136 132 131 125 128 116 80 74 88 86 35 -21 -35 -30 -17 -5 3 10 13 18 25 33 15
135 155 171 152 116 93 69 73 59 56 70 71 90 100 110 103 112 98 100 103 118 126 114 121 125 86 57 57 65 80 41 -13 -24 -30 -25 -15 -5 5 5 6 6 4 25 36
147 127 141 143 126 122 110 83 80 84 89 92 93 98 125 138 131 119 114 105 124 121 113 103 59 51 61 48 29 72 -36 -48 -44 -37 -29 -17 -1 -0 -3 -3 3 4 5 21
113 147 165 163 150 136 114 100 84 91 93 92 97 107 126 113 109 118 127 117 139 137 96 92 44 55 68 64 35 65 -59 -58 -47 -34 -29 -22 -7 6 10 -7 -15 9 18 33
125 149 148 155 143 126 126 93 97 94 88 92 99 116 128 110 108 113 120 138 116 80 54 33 68 62 69 53 58 16 -67 -59 -51 -43 -28 -5 14 21 31 31 27 32 41 42
163 158 138 133 127 120 121 113 110 95 83 89 101 113 126 103 96 110 115 141 108 34 64 75 60 42 39 64 20 -23 -56 -55 -48 -38 -27 4 18 35 48 51 54 53 42 41
153 144 133 120 109 99 108 115 107 90 79 84 101 118 123 110 112 128 129 108 84 61 36 62 25 8 9 40 30 -29 -47 -46 -39 -20 1 26 42 46 59 66 53 63 63 65
145 140 127 114 103 104 92 115 108 88 79 93 106 116 118 119 124 139 153 100 37 25 28 26 22 8 21 40 -25 -43 -41 -37 -32 -0 28 21 38 72 70 50 58 58 72 62
117 98 91 95 90 91 99 103 92 69 65 82 94 118 114 133 141 139 128 100 43 20 38 24 6 15 52 65 -43 -42 -31 -33 14 49 24 26 55 66 64 71 70 39 42 55
93 81 72 61 61 67 83 75 62 79 51 76 106 114 127 131 113 88 103 76 69 33 45 46 49 46 57 64 2 -32 -34 -32 6 38 30 33 49 49 70 79 72 64 78 75
67 84 54 60 63 63 62 64 58 58 69 77 82 100 93 97 98 44 19 113 95 71 63 59 52 45 51 53 -36 -35 -31 -24 2 35 36 40 42 40 49 79 101 83 54 32
Wind_Speed
65 63 66 68 66 57 58 62 72 74 78 72 80 86 82 69 62 60 59 57 63 68 72 76 78 78 78 78 78 77 81 82 83 83 82 82 83 81 79 78 78 76 75 73
86 67 66 70 63 64 62 64 67 70 77 78 73 66 67 68 63 63 64 66 70 70 79 81 80 79 79 83 84 84 87 89 89 88 88 87 86 85 83 83 81 79 79 77
92 76 82 90 70 51 58 56 56 70 71 66 72 75 71 72 69 71 75 75 73 79 80 80 83 82 84 86 86 88 91 94 95 94 94 90 87 85 85 84 82 81 80 78
91 89 95 65 52 63 65 64 57 64 73 73 75 73 74 67 70 71 76 77 77 78 80 81 82 84 85 87 90 95 97 99 96 94 94 91 87 85 83 81 80 79 78 76
83 90 94 88 64 67 74 80 67 70 69 72 73 72 78 59 62 73 75 75 75 75 79 84 90 92 93 97 98 98 101 99 96 93 94 90 88 85 80 78 75 74 73 73
78 92 102 78 68 62 67 98 60 54 74 87 81 97 81 75 71 73 73 74 81 85 87 94 99 95 98 101 99 101 97 96 92 89 89 87 82 80 76 72 73 71 72 70
80 91 89 72 60 57 89 92 57 78 95 80 79 73 72 69 72 72 78 85 90 95 99 100 98 96 99 98 99 95 91 92 90 88 87 81 79 74 72 69 68 67 69 70
75 87 106 56 58 78 81 82 83 93 80 67 66 65 66 69 76 84 91 97 98 100 102 99 93 94 98 101 95 92 91 90 91 88 82 76 71 69 67 66 66 67 68 73
73 84 71 71 82 79 80 86 88 66 57 59 61 64 70 77 86 91 95 97 97 97 102 101 95 90 101 97 92 91 89 88 87 82 76 66 65 65 62 60 59 60 64 77
92 83 85 98 82 70 75 70 61 56 57 55 65 71 78 85 90 95 99 103 101 102 107 108 98 94 91 92 88 85 85 83 79 77 68 58 52 54 53 54 56 61 68 77
97 94 82 65 75 81 74 63 59 56 57 61 66 74 79 90 98 101 104 106 103 105 104 104 99 96 89 85 83 82 77 76 73 64 60 57 52 49 49 43 42 52 65 80
91 79 80 82 74 65 62 62 61 62 68 70 72 79 88 99 99 101 104 104 104 101 98 98 101 94 88 85 76 74 72 68 60 55 51 53 54 53 43 27 20 50 66 71
70 65 58 55 65 66 66 69 72 73 76 84 85 86 96 100 100 101 99 96 94 99 101 99 93 89 83 74 68 65 59 55 53 53 53 51 45 31 28 22 26 50 59 65
54 57 59 62 68 72 73 75 75 77 79 80 83 88 92 94 96 93 94 95 95 96 94 88 84 80 70 66 64 58 55 51 50 49 44 27 15 23 32 38 51 56 55 59
57 58 59 67 72 77 76 80 84 85 84 90 86 89 92 96 96 94 90 90 90 87 81 77 71 67 63 62 59 57 54 50 43 24 12 23 31 39 41 42 43 50 52 54
63 61 67 74 80 83 83 80 82 85 87 90 92 90 88 86 86 85 84 85 88 82 73 64 62 54 57 58 56 53 48 35 26 36 24 39 38 37 38 38 39 43 46 50
59 74 83 86 86 86 82 76 74 78 84 86 86 86 88 90 86 86 86 83 75 65 56 50 44 49 53 53 50 42 24 14 34 44 37 37 39 39 41 42 41 41 42 47
55 61 67 69 75 76 76 73 74 76 79 81 81 83 85 87 87 88 82 80 67 60 50 44 44 48 56 51 41 27 7 21 32 36 39 41 39 38 40 41 42 45 48 52
60 61 63 65 61 62 66 70 71 72 73 75 80 80 79 79 77 74 73 70 55 53 48 42 42 47 49 40 32 43 62 40 40 43 43 41 42 41 42 46 51 55 58 58
59 59 58 55 54 55 58 56 61 66 68 72 75 75 81 82 79 75 69 59 43 41 32 38 52 48 38 35 39 49 47 46 46 45 44 46 48 49 55 61 66 66 64 63
61 63 63 60 57 55 55 55 60 65 67 70 71 72 78 77 72 70 64 56 46 48 36 47 44 44 32 38 51 63 56 50 50 49 49 50 52 53 47 47 54 57 57 58
61 64 65 64 65 63 63 62 64 65 66 68 69 69 72 71 72 65 60 44 46 40 24 44 46 38 34 54 61 66 58 55 53 47 53 48 39 34 34 41 43 48 56 58
67 67 67 68 69 67 65 65 63 64 67 71 70 68 67 65 68 65 67 59 43 31 33 45 46 43 49 56 62 64 58 58 48 40 38 34 22 22 29 34 36 35 39 43
72 72 71 70 69 71 73 71 69 65 65 65 62 62 63 62 63 55 46 36 26 17 24 41 43 42 53 53 59 60 59 57 47 34 36 33 21 14 24 39 44 45 44 46
74 74 74 75 76 74 73 74 73 69 69 67 66 64 63 59 52 42 47 40 32 26 24 39 40 42 45 42 55 57 59 56 21 9 30 27 18 18 28 32 39 46 50 45
76 74 75 73 73 73 73 73 72 75 75 77 75 70 63 62 62 65 57 42 39 34 32 39 38 39 41 44 33 48 55 56 30 17 17 25 22 32 28 34 42 48 49 49
74 75 75 76 73 74 73 75 79 78 78 79 77 77 77 72 70 76 76 48 40 36 32 33 34 38 40 47 46 54 54 52 24 11 10 16 25 40 45 39 44 47 46 60
Wind_Direction
310 313 314 310 310 309 302 300 302 305 309 312 315 315 317 320 321 320 321 322 322 322 323 323 323 325 326 327 327 327 325 324 322 320 320 319 317 317 317 316 315 315 315 315
316 318 316 313 314 307 301 303 302 304 307 313 320 324 324 324 323 321 321 321 322 323 324 324 325 325 325 325 325 325 323 322 321 320 318 317 316 315 314 313 313 312 311 310
316 325 322 316 320 319 322 317 315 312 316 322 323 324 324 322 321 321 322 324 324 324 326 326 325 325 325 324 323 322 321 320 320 319 317 316 315 314 313 312 312 310 309 308
315 321 315 326 331 324 317 315 309 314 317 319 321 322 323 322 320 323 325 326 326 328 328 328 328 326 324 323 321 320 320 320 320 319 318 317 315 314 313 312 311 310 308 307
314 312 312 316 323 323 321 318 315 311 317 321 322 322 322 328 326 326 328 328 327 328 328 327 325 324 323 322 321 321 320 321 321 321 319 317 314 313 312 312 311 310 309 307
313 310 310 318 324 325 323 313 321 324 323 321 319 315 320 327 329 329 330 330 328 328 327 325 325 325 323 322 323 322 322 323 323 322 320 317 316 314 313 311 309 309 308 307
306 306 311 319 323 327 317 319 326 323 321 319 318 321 325 330 330 331 330 328 327 325 324 325 326 326 325 324 323 324 324 324 323 323 320 318 316 315 313 311 310 310 308 307
311 308 309 323 326 317 319 320 319 320 321 322 325 327 329 328 328 328 327 326 326 325 325 327 328 327 325 324 325 326 325 325 325 324 324 322 319 319 315 313 311 310 309 305
305 307 315 317 315 318 320 318 321 325 328 327 327 327 327 325 324 324 325 327 329 328 326 327 329 329 325 326 327 326 326 327 327 327 327 327 325 324 321 318 314 312 310 301
310 314 313 313 318 323 326 325 327 329 328 326 326 326 324 324 324 325 327 327 329 327 326 325 329 329 327 326 327 327 327 328 330 330 331 332 332 331 328 324 319 315 308 297
307 312 320 326 325 322 322 324 326 327 325 324 325 326 326 325 326 326 327 328 329 327 326 326 329 329 331 331 330 329 329 331 332 333 334 335 335 335 333 331 326 321 309 279
312 322 321 323 329 333 333 331 328 326 325 325 325 325 327 326 327 328 327 328 328 329 329 329 329 330 332 333 334 332 333 335 338 339 339 338 338 337 338 332 275 256 263 265
322 329 332 333 334 337 333 330 327 325 325 323 324 325 326 327 328 328 329 330 331 330 330 330 332 333 335 337 338 337 338 339 341 342 342 343 345 346 270 323 262 261 265 268
342 341 337 339 335 334 333 331 330 328 328 329 329 330 330 330 331 333 333 333 333 333 333 334 336 337 340 341 342 342 343 344 344 345 349 349 302 271 266 265 272 275 272 272
344 343 338 335 333 332 333 331 329 330 332 331 334 333 334 334 334 335 336 337 337 337 339 340 341 342 345 346 347 347 347 349 353 356 301 268 270 271 270 268 267 271 273 273
338 341 340 337 334 333 333 333 332 331 333 334 334 336 338 339 338 339 340 341 341 342 344 346 347 349 351 352 352 354 357 4 273 273 273 275 274 271 271 269 268 268 269 270
341 335 334 332 332 332 333 335 336 336 336 337 338 340 340 340 341 341 341 343 345 347 348 350 352 357 357 358 1 7 14 276 277 283 278 277 275 274 276 276 273 270 269 272
343 339 337 337 336 336 337 339 340 341 341 341 342 342 344 344 343 342 344 346 349 352 355 359 3 3 4 6 13 17 359 278 279 280 283 284 280 276 279 279 277 278 279 282
344 343 342 342 344 343 342 341 344 345 345 344 344 346 347 348 349 349 349 351 354 357 1 5 5 8 8 15 18 15 314 286 286 288 289 288 288 285 285 288 291 292 293 292
345 346 348 349 351 349 347 348 347 347 348 347 347 348 349 349 349 351 353 354 355 359 360 5 6 10 13 17 19 11 293 293 293 292 293 294 295 295 300 307 314 314 309 306
340 342 343 346 349 351 352 352 350 349 349 349 349 350 349 349 352 353 355 358 1 3 355 5 10 11 20 21 10 351 305 298 299 298 297 298 300 302 296 295 300 301 300 298
340 340 340 341 343 345 347 348 346 346 348 349 351 352 352 352 352 356 357 358 1 4 0 7 9 14 16 5 357 329 309 305 302 298 303 299 292 291 289 292 293 294 299 299
336 337 337 338 339 341 343 345 347 346 347 348 350 353 353 353 352 354 355 1 3 3 4 5 7 11 9 2 352 321 309 309 300 295 292 289 285 290 289 290 291 290 289 290
332 332 333 334 336 337 338 342 343 345 346 348 352 354 354 354 354 358 359 356 351 335 8 6 7 11 3 4 318 311 310 308 298 291 291 290 289 305 292 292 296 297 294 294
331 330 329 330 331 333 335 336 337 341 344 348 351 354 355 355 354 354 359 360 360 3 9 7 9 11 10 14 299 304 309 306 295 321 289 290 296 299 294 293 296 299 301 297
332 332 330 330 331 332 333 334 334 336 338 340 345 350 354 355 353 350 355 1 3 4 8 6 11 13 13 11 320 292 303 305 288 288 294 293 296 295 293 294 298 302 302 300
335 336 333 331 332 331 331 330 328 331 335 337 339 343 344 348 350 340 335 358 3 4 7 9 11 11 13 7 288 300 302 300 282 295 301 301 301 301 300 296 300 300 300 310